Location: Daouli
(14.8671°N, 3.2030°W)
Time: 00:43:04
(UTC+00:00)

CZ-2C R/B - Pass Details

Date: 29 October 2020
Orbit: 784 x 871 km, 98.2° (Epoch: 02 December)

Event Time Altitude Azimuth Distance (km) Brightness Sun altitude
Exits shadow 20:15:06 33° 271° (W) 1,345 4.1 -36.5°
Drops below altitude 10° 20:19:11 10° 222° (SW) 2,372 5.5 -37.5°
Sets 20:21:41 0° 213° (SSW) 3,290 6.2 -38.1°
